| time (UTC) | temp F | wind direction | speed MPH | gust MPH | rain 1hr in | rain 24hr in | rain mn in | humidity % | barometer mb |
| 20260507145906 | 56 | 277 | 2.0 | 5.0 | 0.00 | 0.09 | 0.00 | ||
| 20260507145407 | 57 | 271 | 3.0 | 4.0 | 0.00 | 0.09 | 0.00 | ||
| 20260507144909 | 60 | 339 | 4.0 | 5.0 | 0.00 | 0.09 | 0.00 | ||
| 20260507144410 | 58 | 270 | 5.0 | 3.0 | 0.00 | 0.09 | 0.00 | ||
| 20260507143912 | 53 | 277 | 5.0 | 7.0 | 0.00 | 0.09 | 0.00 | ||
| 20260507143413 | 52 | 316 | 5.0 | 0.0 | 0.00 | 0.09 | 0.00 | ||
| 20260507142913 | 51 | 270 | 5.0 | 4.0 | 0.00 | 0.09 | 0.00 | ||
| 20260507142415 | 50 | 271 | 7.0 | 4.0 | 0.00 | 0.09 | 0.00 | ||
| 20260507141915 | 49 | 257 | 3.0 | 6.0 | 0.00 | 0.09 | 0.00 | ||
| 20260507141416 | 49 | 301 | 6.0 | 5.0 | 0.00 | 0.09 | 0.00 | ||
| 20260507140918 | 48 | 248 | 4.0 | 0.0 | 0.00 | 0.09 | 0.00 | ||
| 20260507140417 | 48 | 228 | 5.0 | 6.0 | 0.00 | 0.09 | 0.00 | ||
| 20260507135918 | 47 | 281 | 1.0 | 5.0 | 0.00 | 0.09 | 0.00 | ||
| 20260507135420 | 47 | 318 | 6.0 | 3.0 | 0.00 | 0.09 | 0.00 | ||
| 20260507134919 | 46 | 298 | 1.0 | 5.0 | 0.00 | 0.09 | 0.00 | ||
| 20260507134419 | 46 | 264 | 3.0 | 6.0 | 0.00 | 0.09 | 0.00 | ||
| 20260507133921 | 45 | 359 | 0.0 | 0.0 | 0.00 | 0.09 | 0.00 | ||
| 20260507133421 | 45 | 359 | 0.0 | 0.0 | 0.00 | 0.09 | 0.00 | ||
| 20260507132918 | 44 | 359 | 0.0 | 0.0 | 0.00 | 0.09 | 0.00 | ||
| 20260507132418 | 44 | 359 | 0.0 | 0.0 | 0.00 | 0.09 | 0.00 | ||
| 20260507131917 | 43 | 295 | 6.0 | 5.0 | 0.00 | 0.09 | 0.00 | ||
| 20260507131420 | 43 | 252 | 5.0 | 3.0 | 0.00 | 0.09 | 0.00 | ||
| 20260507130918 | 42 | 349 | 6.0 | 0.0 | 0.00 | 0.09 | 0.00 | ||
| 20260507130420 | 42 | 158 | 5.0 | 0.0 | 0.00 | 0.09 | 0.00 | ||
| 20260507125922 | 42 | 276 | 4.0 | 3.0 | 0.00 | 0.09 | 0.00 | ||
| 20260507125423 | 42 | 266 | 5.0 | 0.0 | 0.00 | 0.09 | 0.00 | ||
| 20260507124925 | 41 | 245 | 4.0 | 3.0 | 0.00 | 0.09 | 0.00 | ||
| 20260507124423 | 41 | 267 | 4.0 | 5.0 | 0.00 | 0.09 | 0.00 | ||
| 20260507123924 | 40 | 271 | 1.0 | 0.0 | 0.00 | 0.09 | 0.00 | ||
| 20260507123425 | 40 | 13 | 2.0 | 3.0 | 0.00 | 0.09 | 0.00 | ||
| 20260507122927 | 40 | 245 | 0.0 | 0.0 | 0.00 | 0.09 | 0.00 | ||
| 20260507122427 | 39 | 184 | 4.0 | 3.0 | 0.00 | 0.09 | 0.00 | ||
| 20260507121929 | 39 | 253 | 1.0 | 0.0 | 0.00 | 0.09 | 0.00 | ||
| 20260507121429 | 39 | 273 | 0.0 | 0.0 | 0.00 | 0.09 | 0.00 | ||
| 20260507120931 | 39 | 273 | 0.0 | 0.0 | 0.00 | 0.09 | 0.00 | ||
| 20260507120428 | 39 | 273 | 0.0 | 0.0 | 0.00 | 0.09 | 0.00 | ||
| 20260507115930 | 39 | 273 | 0.0 | 0.0 | 0.00 | 0.09 | 0.00 | ||
| 20260507115429 | 39 | 273 | 0.0 | 0.0 | 0.00 | 0.09 | 0.00 | ||
| 20260507114930 | 39 | 273 | 0.0 | 0.0 | 0.00 | 0.09 | 0.00 | ||
| 20260507114428 | 39 | 273 | 0.0 | 0.0 | 0.00 | 0.09 | 0.00 | ||
| 20260507113929 | 39 | 273 | 0.0 | 0.0 | 0.00 | 0.09 | 0.00 | ||
| 20260507113433 | 39 | 273 | 0.0 | 0.0 | 0.00 | 0.09 | 0.00 | ||
| 20260507112931 | 39 | 273 | 0.0 | 0.0 | 0.00 | 0.09 | 0.00 | ||
| 20260507112432 | 38 | 273 | 0.0 | 0.0 | 0.00 | 0.09 | 0.00 | ||
| 20260507111933 | 38 | 273 | 0.0 | 0.0 | 0.00 | 0.09 | 0.00 | ||
| 20260507111434 | 39 | 273 | 0.0 | 0.0 | 0.00 | 0.09 | 0.00 | ||
| 20260507110936 | 39 | 273 | 0.0 | 0.0 | 0.00 | 0.09 | 0.00 | ||
| 20260507110437 | 39 | 273 | 0.0 | 0.0 | 0.00 | 0.09 | 0.00 | ||
| 20260507105940 | 39 | 273 | 0.0 | 0.0 | 0.00 | 0.09 | 0.00 | ||
| 20260507105441 | 39 | 273 | 0.0 | 0.0 | 0.00 | 0.09 | 0.00 | ||
| 20260507104943 | 39 | 273 | 0.0 | 0.0 | 0.00 | 0.09 | 0.00 | ||
| 20260507104444 | 39 | 273 | 0.0 | 0.0 | 0.00 | 0.09 | 0.00 | ||
| 20260507103944 | 39 | 273 | 0.0 | 0.0 | 0.00 | 0.09 | 0.00 | ||
| 20260507103442 | 39 | 273 | 0.0 | 0.0 | 0.00 | 0.09 | 0.00 | ||
| 20260507102944 | 39 | 273 | 0.0 | 0.0 | 0.00 | 0.09 | 0.00 | ||
| 20260507102445 | 39 | 273 | 0.0 | 0.0 | 0.00 | 0.09 | 0.00 | ||
| 20260507101947 | 39 | 273 | 0.0 | 0.0 | 0.00 | 0.09 | 0.00 | ||
| 20260507101448 | 40 | 273 | 0.0 | 0.0 | 0.00 | 0.09 | 0.00 | ||
| 20260507100950 | 40 | 273 | 0.0 | 0.0 | 0.00 | 0.09 | 0.00 | ||
| 20260507100452 | 40 | 273 | 0.0 | 0.0 | 0.00 | 0.09 | 0.00 | ||
| 20260507095953 | 40 | 273 | 0.0 | 0.0 | 0.00 | 0.09 | 0.00 | ||
| 20260507095455 | 40 | 273 | 0.0 | 0.0 | 0.00 | 0.09 | 0.00 | ||
| 20260507094956 | 40 | 273 | 0.0 | 0.0 | 0.00 | 0.09 | 0.00 | ||
| 20260507094458 | 40 | 273 | 0.0 | 0.0 | 0.00 | 0.09 | 0.00 | ||
| 20260507093957 | 39 | 273 | 0.0 | 0.0 | 0.00 | 0.09 | 0.00 | ||
| 20260507093000 | 39 | 273 | 0.0 | 0.0 | 0.00 | 0.09 | 0.00 | ||
| 20260507092502 | 40 | 273 | 0.0 | 0.0 | 0.00 | 0.09 | 0.00 | ||
| 20260507092003 | 40 | 273 | 0.0 | 0.0 | 0.00 | 0.09 | 0.00 | ||
| 20260507091505 | 40 | 273 | 0.0 | 0.0 | 0.00 | 0.09 | 0.00 | ||
| 20260507091006 | 40 | 273 | 0.0 | 0.0 | 0.00 | 0.09 | 0.00 | ||
| 20260507090508 | 40 | 273 | 0.0 | 0.0 | 0.00 | 0.09 | 0.00 | ||
| 20260507090009 | 41 | 273 | 0.0 | 0.0 | 0.00 | 0.09 | 0.00 | ||
| 20260507085510 | 41 | 273 | 0.0 | 0.0 | 0.00 | 0.09 | 0.00 | ||
| 20260507085011 | 41 | 273 | 0.0 | 0.0 | 0.00 | 0.09 | 0.00 | ||
| 20260507084511 | 41 | 273 | 0.0 | 0.0 | 0.00 | 0.09 | 0.00 | ||
| 20260507084013 | 41 | 273 | 0.0 | 0.0 | 0.00 | 0.09 | 0.00 | ||
| 20260507083515 | 41 | 273 | 0.0 | 0.0 | 0.00 | 0.09 | 0.00 | ||
| 20260507083012 | 41 | 273 | 0.0 | 0.0 | 0.00 | 0.09 | 0.00 | ||
| 20260507082514 | 41 | 273 | 0.0 | 0.0 | 0.00 | 0.09 | 0.00 | ||
| 20260507082015 | 42 | 273 | 0.0 | 0.0 | 0.00 | 0.09 | 0.00 | ||
| 20260507081517 | 41 | 273 | 0.0 | 0.0 | 0.00 | 0.09 | 0.00 | ||
| 20260507081019 | 42 | 273 | 0.0 | 0.0 | 0.00 | 0.09 | 0.00 | ||
| 20260507080520 | 41 | 273 | 0.0 | 0.0 | 0.00 | 0.09 | 0.00 | ||
| 20260507080022 | 42 | 273 | 0.0 | 0.0 | 0.00 | 0.09 | 0.00 | ||
| 20260507075523 | 42 | 273 | 0.0 | 0.0 | 0.00 | 0.09 | 0.00 | ||
| 20260507075025 | 42 | 273 | 0.0 | 0.0 | 0.00 | 0.09 | 0.00 | ||
| 20260507074527 | 42 | 273 | 0.0 | 0.0 | 0.00 | 0.09 | 0.00 | ||
| 20260507074028 | 42 | 273 | 0.0 | 0.0 | 0.00 | 0.09 | 0.00 | ||
| 20260507073530 | 42 | 273 | 0.0 | 0.0 | 0.00 | 0.09 | 0.00 | ||
| 20260507073031 | 42 | 273 | 0.0 | 0.0 | 0.00 | 0.09 | 0.00 | ||
| 20260507072532 | 42 | 273 | 0.0 | 0.0 | 0.00 | 0.09 | 0.00 | ||
| 20260507072034 | 43 | 273 | 0.0 | 0.0 | 0.00 | 0.09 | 0.00 | ||
| 20260507071536 | 43 | 273 | 0.0 | 0.0 | 0.00 | 0.09 | 0.00 | ||
| 20260507071037 | 43 | 273 | 0.0 | 0.0 | 0.00 | 0.09 | 0.00 | ||
| 20260507070539 | 43 | 273 | 0.0 | 0.0 | 0.00 | 0.09 | 0.00 | ||
| 20260507070041 | 43 | 273 | 0.0 | 0.0 | 0.00 | 0.09 | 0.00 | ||
| 20260507065542 | 43 | 273 | 0.0 | 0.0 | 0.00 | 0.09 | 0.00 | ||
| 20260507065044 | 43 | 273 | 0.0 | 0.0 | 0.00 | 0.09 | 0.00 | ||
| 20260507064546 | 43 | 273 | 0.0 | 0.0 | 0.00 | 0.09 | 0.00 | ||
| 20260507064047 | 42 | 273 | 0.0 | 0.0 | 0.00 | 0.09 | 0.00 | ||
| 20260507063549 | 43 | 273 | 0.0 | 0.0 | 0.00 | 0.09 | 0.00 | ||
| 20260507063050 | 43 | 273 | 0.0 | 0.0 | 0.00 | 0.09 | 0.00 | ||
| 20260507062552 | 43 | 273 | 0.0 | 0.0 | 0.00 | 0.09 | 0.00 | ||
| 20260507062053 | 43 | 273 | 0.0 | 0.0 | 0.00 | 0.09 | 0.00 | ||
| 20260507061555 | 43 | 273 | 0.0 | 0.0 | 0.00 | 0.09 | 0.00 | ||
| 20260507061056 | 43 | 273 | 0.0 | 0.0 | 0.00 | 0.09 | 0.00 | ||
| 20260507060558 | 44 | 273 | 0.0 | 0.0 | 0.00 | 0.09 | 0.00 | ||
| 20260507060100 | 44 | 273 | 0.0 | 0.0 | 0.00 | 0.09 | 0.00 | ||
| 20260507055601 | 44 | 273 | 0.0 | 0.0 | 0.00 | 0.09 | 0.00 | ||
| 20260507055103 | 44 | 273 | 0.0 | 0.0 | 0.00 | 0.09 | 0.00 | ||
| 20260507054604 | 44 | 273 | 0.0 | 0.0 | 0.00 | 0.09 | 0.00 | ||
| 20260507054106 | 45 | 273 | 0.0 | 0.0 | 0.00 | 0.09 | 0.00 | ||
| 20260507053604 | 45 | 273 | 0.0 | 0.0 | 0.00 | 0.09 | 0.00 | ||
| 20260507053106 | 45 | 273 | 0.0 | 0.0 | 0.00 | 0.09 | 0.00 | ||
| 20260507052605 | 45 | 273 | 0.0 | 0.0 | 0.00 | 0.09 | 0.00 | ||
| 20260507052107 | 45 | 273 | 0.0 | 0.0 | 0.00 | 0.09 | 0.00 | ||
| 20260507051608 | 45 | 273 | 0.0 | 0.0 | 0.00 | 0.09 | 0.00 | ||
| 20260507051110 | 45 | 273 | 0.0 | 0.0 | 0.00 | 0.09 | 0.00 | ||
| 20260507050611 | 45 | 273 | 0.0 | 0.0 | 0.00 | 0.09 | 0.00 | ||
| 20260507050113 | 45 | 273 | 0.0 | 0.0 | 0.00 | 0.09 | 0.00 | ||
| 20260507045615 | 45 | 273 | 0.0 | 0.0 | 0.00 | 0.09 | 0.00 | ||
| 20260507045116 | 45 | 273 | 0.0 | 0.0 | 0.00 | 0.29 | 0.09 | ||
| 20260507044618 | 45 | 273 | 0.0 | 0.0 | 0.00 | 0.29 | 0.09 | ||
| 20260507044119 | 45 | 273 | 0.0 | 0.0 | 0.00 | 0.29 | 0.09 | ||
| 20260507043621 | 45 | 273 | 0.0 | 0.0 | 0.00 | 0.29 | 0.09 | ||
| 20260507043122 | 46 | 273 | 0.0 | 0.0 | 0.00 | 0.29 | 0.09 | ||
| 20260507042624 | 46 | 273 | 0.0 | 0.0 | 0.00 | 0.29 | 0.09 | ||
| 20260507042125 | 46 | 273 | 0.0 | 0.0 | 0.00 | 0.29 | 0.09 | ||
| 20260507041627 | 46 | 273 | 0.0 | 0.0 | 0.00 | 0.29 | 0.09 | ||
| 20260507041128 | 46 | 273 | 0.0 | 0.0 | 0.00 | 0.29 | 0.09 | ||
| 20260507040630 | 46 | 273 | 0.0 | 0.0 | 0.00 | 0.29 | 0.09 | ||
| 20260507040131 | 46 | 273 | 0.0 | 0.0 | 0.00 | 0.29 | 0.09 | ||
| 20260507035633 | 47 | 273 | 0.0 | 0.0 | 0.00 | 0.29 | 0.09 | ||
| 20260507035134 | 47 | 273 | 0.0 | 0.0 | 0.00 | 0.29 | 0.09 | ||
| 20260507034635 | 47 | 273 | 0.0 | 0.0 | 0.00 | 0.29 | 0.09 | ||
| 20260507034137 | 47 | 273 | 0.0 | 0.0 | 0.00 | 0.29 | 0.09 | ||
| 20260507033638 | 47 | 273 | 0.0 | 0.0 | 0.00 | 0.29 | 0.09 | ||
| 20260507033140 | 47 | 273 | 0.0 | 0.0 | 0.00 | 0.29 | 0.09 | ||
| 20260507032642 | 48 | 273 | 0.0 | 0.0 | 0.00 | 0.29 | 0.09 | ||
| 20260507032143 | 47 | 273 | 0.0 | 0.0 | 0.00 | 0.29 | 0.09 | ||
| 20260507031644 | 48 | 273 | 0.0 | 0.0 | 0.00 | 0.29 | 0.09 | ||
| 20260507031147 | 48 | 273 | 0.0 | 0.0 | 0.00 | 0.29 | 0.09 | ||
| 20260507030648 | 48 | 273 | 0.0 | 0.0 | 0.00 | 0.29 | 0.09 | ||
| 20260507030149 | 48 | 273 | 0.0 | 0.0 | 0.00 | 0.29 | 0.09 | ||
| 20260507025651 | 48 | 273 | 0.0 | 0.0 | 0.00 | 0.29 | 0.09 | ||
| 20260507025153 | 48 | 273 | 0.0 | 0.0 | 0.00 | 0.29 | 0.09 | ||
| 20260507024654 | 49 | 273 | 0.0 | 0.0 | 0.00 | 0.29 | 0.09 | ||
| 20260507024157 | 49 | 273 | 0.0 | 0.0 | 0.00 | 0.29 | 0.09 | ||
| 20260507023657 | 49 | 273 | 0.0 | 0.0 | 0.00 | 0.29 | 0.09 | ||
| 20260507023159 | 49 | 273 | 0.0 | 0.0 | 0.00 | 0.29 | 0.09 | ||
| 20260507022700 | 49 | 273 | 0.0 | 0.0 | 0.00 | 0.29 | 0.09 | ||
| 20260507022202 | 49 | 273 | 0.0 | 0.0 | 0.00 | 0.29 | 0.09 | ||
| 20260507021702 | 49 | 273 | 0.0 | 0.0 | 0.00 | 0.29 | 0.09 | ||
| 20260507021202 | 49 | 273 | 0.0 | 0.0 | 0.00 | 0.29 | 0.09 | ||
| 20260507020702 | 50 | 273 | 0.0 | 0.0 | 0.00 | 0.29 | 0.09 | ||
| 20260507020204 | 50 | 273 | 0.0 | 0.0 | 0.00 | 0.29 | 0.09 | ||
| 20260507015705 | 50 | 273 | 0.0 | 0.0 | 0.00 | 0.29 | 0.09 | ||
| 20260507015207 | 51 | 273 | 0.0 | 0.0 | 0.00 | 0.29 | 0.09 | ||
| 20260507014708 | 51 | 273 | 0.0 | 0.0 | 0.00 | 0.29 | 0.09 | ||
| 20260507014210 | 51 | 273 | 0.0 | 0.0 | 0.00 | 0.29 | 0.09 | ||
| 20260507013711 | 51 | 273 | 0.0 | 0.0 | 0.00 | 0.29 | 0.09 | ||
| 20260507013213 | 52 | 243 | 2.0 | 0.0 | 0.00 | 0.29 | 0.09 | ||
| 20260507012715 | 52 | 295 | 0.0 | 0.0 | 0.00 | 0.29 | 0.09 | ||
| 20260507012216 | 52 | 295 | 0.0 | 0.0 | 0.00 | 0.29 | 0.09 | ||
| 20260507011718 | 52 | 295 | 1.0 | 0.0 | 0.00 | 0.29 | 0.09 | ||
| 20260507011220 | 53 | 280 | 4.0 | 0.0 | 0.00 | 0.29 | 0.09 | ||
| 20260507010721 | 53 | 263 | 3.0 | 3.0 | 0.00 | 0.29 | 0.09 | ||
| 20260507010223 | 53 | 259 | 3.0 | 2.0 | 0.00 | 0.29 | 0.09 | ||
| 20260507005725 | 53 | 245 | 0.0 | 5.0 | 0.00 | 0.29 | 0.09 | ||
| 20260507005224 | 53 | 302 | 3.0 | 4.0 | 0.00 | 0.29 | 0.09 | ||
| 20260507004727 | 54 | 255 | 4.0 | 3.0 | 0.00 | 0.29 | 0.09 | ||
| 20260507004227 | 53 | 287 | 4.0 | 1.0 | 0.00 | 0.29 | 0.09 | ||
| 20260507003729 | 54 | 266 | 6.0 | 5.0 | 0.00 | 0.29 | 0.09 | ||
| 20260507003231 | 54 | 264 | 3.0 | 0.0 | 0.00 | 0.29 | 0.09 | ||
| 20260507002733 | 54 | 235 | 2.0 | 5.0 | 0.00 | 0.29 | 0.09 | ||
| 20260507002235 | 54 | 218 | 5.0 | 6.0 | 0.00 | 0.29 | 0.09 | ||
| 20260507001735 | 54 | 255 | 4.0 | 6.0 | 0.00 | 0.29 | 0.09 | ||
| 20260507001237 | 54 | 245 | 5.0 | 6.0 | 0.00 | 0.29 | 0.09 | ||
| 20260507000739 | 55 | 307 | 2.0 | 4.0 | 0.00 | 0.29 | 0.09 | ||
| 20260507000240 | 56 | 356 | 2.0 | 5.0 | 0.00 | 0.29 | 0.09 | ||
| 20260506235742 | 56 | 193 | 4.0 | 8.0 | 0.00 | 0.29 | 0.09 | ||
| 20260506235243 | 55 | 278 | 5.0 | 3.0 | 0.00 | 0.29 | 0.09 | ||
| 20260506234745 | 55 | 280 | 2.0 | 3.0 | 0.00 | 0.29 | 0.09 | ||
| 20260506234246 | 56 | 287 | 0.0 | 0.0 | 0.00 | 0.29 | 0.09 | ||
| 20260506233748 | 55 | 287 | 0.0 | 0.0 | 0.00 | 0.29 | 0.09 | ||
| 20260506233250 | 55 | 287 | 4.0 | 0.0 | 0.00 | 0.29 | 0.09 | ||
| 20260506232751 | 55 | 236 | 1.0 | 6.0 | 0.00 | 0.29 | 0.09 | ||
| 20260506232253 | 55 | 280 | 3.0 | 0.0 | 0.00 | 0.29 | 0.09 | ||
| 20260506231754 | 55 | 307 | 4.0 | 0.0 | 0.00 | 0.29 | 0.09 | ||
| 20260506231256 | 56 | 290 | 0.0 | 0.0 | 0.00 | 0.29 | 0.09 | ||
| 20260506230757 | 55 | 290 | 0.0 | 0.0 | 0.00 | 0.29 | 0.09 | ||
| 20260506230258 | 54 | 290 | 0.0 | 0.0 | 0.00 | 0.29 | 0.09 | ||
| 20260506225800 | 53 | 349 | 6.0 | 0.0 | 0.00 | 0.29 | 0.09 | ||
| 20260506225301 | 54 | 322 | 4.0 | 5.0 | 0.00 | 0.29 | 0.09 | ||
| 20260506224803 | 54 | 0 | 5.0 | 5.0 | 0.00 | 0.29 | 0.09 | ||
| 20260506224304 | 54 | 346 | 5.0 | 5.0 | 0.00 | 0.29 | 0.09 | ||
| 20260506223806 | 54 | 356 | 6.0 | 7.0 | 0.00 | 0.29 | 0.09 | ||
| 20260506223307 | 54 | 338 | 4.0 | 3.0 | 0.00 | 0.29 | 0.09 | ||
| 20260506222809 | 53 | 352 | 5.0 | 4.0 | 0.00 | 0.29 | 0.09 | ||
| 20260506222308 | 54 | 1 | 4.0 | 5.0 | 0.00 | 0.29 | 0.09 | ||
| 20260506221810 | 53 | 345 | 4.0 | 4.0 | 0.00 | 0.29 | 0.09 | ||
| 20260506221312 | 54 | 329 | 4.0 | 3.0 | 0.00 | 0.29 | 0.09 | ||
| 20260506220813 | 55 | 7 | 5.0 | 4.0 | 0.00 | 0.29 | 0.09 | ||
| 20260506220315 | 54 | 354 | 5.0 | 7.0 | 0.00 | 0.29 | 0.09 | ||
| 20260506215816 | 54 | 11 | 0.0 | 4.0 | 0.00 | 0.29 | 0.09 | ||
| 20260506215318 | 54 | 218 | 4.0 | 0.0 | 0.00 | 0.29 | 0.09 | ||
| 20260506214820 | 55 | 203 | 4.0 | 0.0 | 0.00 | 0.29 | 0.09 | ||
| 20260506214321 | 55 | 158 | 4.0 | 4.0 | 0.00 | 0.29 | 0.09 | ||
| 20260506213823 | 55 | 295 | 0.0 | 3.0 | 0.00 | 0.29 | 0.09 | ||
| 20260506213325 | 56 | 293 | 1.0 | 6.0 | 0.00 | 0.29 | 0.09 | ||
| 20260506212826 | 56 | 194 | 3.0 | 3.0 | 0.00 | 0.29 | 0.09 | ||
| 20260506212328 | 56 | 307 | 5.0 | 6.0 | 0.00 | 0.29 | 0.09 | ||
| 20260506211830 | 57 | 187 | 4.0 | 4.0 | 0.00 | 0.29 | 0.09 | ||
| 20260506211331 | 57 | 300 | 4.0 | 6.0 | 0.00 | 0.29 | 0.09 | ||
| 20260506210833 | 58 | 356 | 1.0 | 5.0 | 0.00 | 0.29 | 0.09 | ||
| 20260506210335 | 59 | 318 | 4.0 | 0.0 | 0.00 | 0.29 | 0.09 | ||
| 20260506205836 | 59 | 301 | 3.0 | 0.0 | 0.00 | 0.29 | 0.09 | ||
| 20260506205338 | 58 | 273 | 5.0 | 9.0 | 0.00 | 0.29 | 0.09 | ||
| 20260506204840 | 58 | 205 | 4.0 | 0.0 | 0.00 | 0.29 | 0.09 | ||
| 20260506204341 | 58 | 200 | 0.0 | 6.0 | 0.00 | 0.29 | 0.09 | ||
| 20260506203843 | 57 | 160 | 5.0 | 3.0 | 0.00 | 0.29 | 0.09 | ||
| 20260506203344 | 57 | 264 | 0.0 | 0.0 | 0.00 | 0.29 | 0.09 | ||
| 20260506202846 | 57 | 273 | 0.0 | 0.0 | 0.00 | 0.29 | 0.09 | ||
| 20260506202347 | 58 | 169 | 4.0 | 3.0 | 0.00 | 0.29 | 0.09 | ||
| 20260506201849 | 58 | 246 | 3.0 | 0.0 | 0.00 | 0.29 | 0.09 | ||
| 20260506201351 | 58 | 187 | 4.0 | 6.0 | 0.00 | 0.29 | 0.09 | ||
| 20260506200852 | 58 | 335 | 3.0 | 6.0 | 0.00 | 0.29 | 0.09 | ||
| 20260506200354 | 57 | 146 | 3.0 | 0.0 | 0.00 | 0.29 | 0.09 | ||
| 20260506195856 | 57 | 201 | 2.0 | 0.0 | 0.00 | 0.29 | 0.09 | ||
| 20260506195357 | 57 | 228 | 6.0 | 7.0 | 0.00 | 0.29 | 0.09 | ||
| 20260506194857 | 57 | 221 | 4.0 | 0.0 | 0.00 | 0.29 | 0.09 | ||
| 20260506193859 | 56 | 305 | 6.0 | 5.0 | 0.00 | 0.29 | 0.09 | ||
| 20260506193400 | 56 | 349 | 5.0 | 5.0 | 0.00 | 0.29 | 0.09 | ||
| 20260506192900 | 56 | 181 | 3.0 | 0.0 | 0.00 | 0.29 | 0.09 | ||
| 20260506192401 | 55 | 308 | 3.0 | 0.0 | 0.00 | 0.29 | 0.09 | ||
| 20260506191859 | 55 | 333 | 1.0 | 5.0 | 0.00 | 0.29 | 0.09 | ||
| 20260506191401 | 55 | 250 | 4.0 | 0.0 | 0.00 | 0.29 | 0.09 | ||
| 20260506190900 | 56 | 354 | 0.0 | 0.0 | 0.00 | 0.29 | 0.09 | ||
| 20260506190402 | 54 | 354 | 1.0 | 0.0 | 0.00 | 0.29 | 0.09 | ||
| 20260506185859 | 56 | 257 | 0.0 | 0.0 | 0.00 | 0.29 | 0.09 | ||
| 20260506185400 | 56 | 267 | 6.0 | 6.0 | 0.00 | 0.29 | 0.09 | ||
| 20260506184901 | 55 | 10 | 0.0 | 0.0 | 0.00 | 0.29 | 0.09 | ||
| 20260506184403 | 54 | 13 | 3.0 | 3.0 | 0.00 | 0.29 | 0.09 | ||
| 20260506183905 | 55 | 233 | 2.0 | 6.0 | 0.00 | 0.29 | 0.09 | ||
| 20260506183406 | 53 | 249 | 7.0 | 3.0 | 0.00 | 0.29 | 0.09 | ||
| 20260506182907 | 53 | 253 | 6.0 | 0.0 | 0.00 | 0.29 | 0.09 | ||
| 20260506182409 | 54 | 277 | 3.0 | 3.0 | 0.00 | 0.29 | 0.09 | ||
| 20260506181909 | 54 | 273 | 3.0 | 3.0 | 0.00 | 0.29 | 0.09 | ||
| 20260506181411 | 53 | 280 | 0.0 | 0.0 | 0.00 | 0.29 | 0.09 | ||
| 20260506180912 | 53 | 270 | 2.0 | 0.0 | 0.00 | 0.29 | 0.09 | ||
| 20260506180414 | 53 | 302 | 5.0 | 3.0 | 0.00 | 0.29 | 0.09 | ||
| 20260506175914 | 53 | 342 | 2.0 | 0.0 | 0.00 | 0.29 | 0.09 | ||
| 20260506175416 | 53 | 352 | 0.0 | 3.0 | 0.00 | 0.29 | 0.09 | ||
| 20260506174917 | 53 | 274 | 3.0 | 4.0 | 0.00 | 0.29 | 0.09 | ||
| 20260506174418 | 52 | 113 | 2.0 | 0.0 | 0.00 | 0.29 | 0.09 | ||
| 20260506173920 | 53 | 321 | 0.0 | 0.0 | 0.00 | 0.29 | 0.09 | ||
| 20260506173421 | 53 | 321 | 0.0 | 0.0 | 0.00 | 0.29 | 0.09 | ||
| 20260506172924 | 55 | 321 | 0.0 | 0.0 | 0.00 | 0.29 | 0.09 | ||
| 20260506172424 | 55 | 321 | 0.0 | 0.0 | 0.00 | 0.29 | 0.09 | ||
| 20260506171926 | 54 | 321 | 0.0 | 0.0 | 0.00 | 0.29 | 0.09 | ||
| 20260506171426 | 53 | 321 | 0.0 | 0.0 | 0.00 | 0.29 | 0.09 | ||
| 20260506170928 | 54 | 321 | 0.0 | 0.0 | 0.00 | 0.29 | 0.09 | ||
| 20260506170429 | 53 | 321 | 0.0 | 0.0 | 0.00 | 0.29 | 0.09 | ||
| 20260506165931 | 52 | 321 | 0.0 | 0.0 | 0.00 | 0.29 | 0.09 | ||
| 20260506165431 | 52 | 321 | 0.0 | 0.0 | 0.00 | 0.29 | 0.09 | ||
| 20260506164933 | 53 | 321 | 0.0 | 0.0 | 0.00 | 0.29 | 0.09 | ||
| 20260506164435 | 53 | 321 | 0.0 | 0.0 | 0.00 | 0.29 | 0.09 | ||
| 20260506163936 | 52 | 321 | 0.0 | 0.0 | 0.00 | 0.29 | 0.09 | ||
| 20260506163437 | 52 | 321 | 0.0 | 0.0 | 0.00 | 0.29 | 0.09 | ||
| 20260506162939 | 52 | 321 | 0.0 | 0.0 | 0.00 | 0.29 | 0.09 | ||
| 20260506162440 | 52 | 321 | 0.0 | 0.0 | 0.00 | 0.29 | 0.09 | ||
| 20260506161943 | 51 | 321 | 0.0 | 0.0 | 0.00 | 0.29 | 0.09 | ||
| 20260506161444 | 51 | 321 | 0.0 | 0.0 | 0.00 | 0.29 | 0.09 | ||
| 20260506160945 | 52 | 321 | 0.0 | 0.0 | 0.00 | 0.29 | 0.09 | ||
| 20260506160447 | 50 | 321 | 0.0 | 0.0 | 0.00 | 0.29 | 0.09 | ||
| 20260506155948 | 50 | 321 | 0.0 | 0.0 | 0.00 | 0.29 | 0.09 | ||
| 20260506155451 | 50 | 321 | 0.0 | 0.0 | 0.00 | 0.29 | 0.09 | ||
| 20260506154952 | 49 | 321 | 0.0 | 0.0 | 0.00 | 0.29 | 0.09 | ||
| 20260506154453 | 49 | 321 | 0.0 | 0.0 | 0.00 | 0.29 | 0.09 | ||
| 20260506153955 | 49 | 321 | 0.0 | 0.0 | 0.00 | 0.29 | 0.09 | ||
| 20260506153456 | 49 | 321 | 0.0 | 0.0 | 0.00 | 0.29 | 0.09 | ||
| 20260506152958 | 49 | 321 | 0.0 | 0.0 | 0.00 | 0.29 | 0.09 | ||
| 20260506152459 | 47 | 321 | 0.0 | 0.0 | 0.00 | 0.29 | 0.09 | ||
| 20260506152001 | 48 | 321 | 0.0 | 0.0 | 0.00 | 0.29 | 0.09 | ||
| 20260506151503 | 47 | 321 | 0.0 | 0.0 | 0.00 | 0.29 | 0.09 | ||
| 20260506151004 | 48 | 321 | 0.0 | 0.0 | 0.00 | 0.29 | 0.09 | ||
| 20260506150506 | 48 | 321 | 0.0 | 0.0 | 0.00 | 0.29 | 0.09 |